Weather History for Altoona, PA

Change the Weather History Date:

Wednesday, November 27, 2013

  Actual Average Record
Temperature  
Mean Temperature 29 °F 37 °F  
Max Temperature 35 °F 45 °F 65 °F (1988)
Min Temperature 23 °F 30 °F 13 °F (1974)
Degree Days  
Heating Degree Days 36 28  
Month to date heating degree days 681 617  
Since 1 July heating degree days 1188 1224  
Cooling Degree Days 0 0  
Month to date cooling degree days 0 0  
Year to date cooling degree days 695 522  
Moisture  
Dew Point 27 °F    
Average Humidity 85    
Maximum Humidity 100    
Minimum Humidity 69    
Precipitation  
Precipitation 0.04 in 0.11 in 1.75 in (1993)
Month to date precipitation 2.31 2.91  
Year to date precipitation 27.29 29.89  
Sea Level Pressure  
Sea Level Pressure 29.70 in    
Wind  
Wind Speed 14 mph (NW)    
Max Wind Speed 26 mph    
Max Gust Speed 37 mph    
Visibility 6 miles    
Events Rain , Snow    
T = Trace of Precipitation, MM = Missing Value Source: NWS Daily Summary

Daily Weather History Graph

Daily Weather History Graph

Search for Another Location

Airport:

Trip Planner

Search our weather history database for the weather conditions in past years. The results will help you decide how hot, cold, wet, or windy it might be!

Date:

Astronomy

Nov. 27, 2013 Rise Set
Actual Time 7:12 AM EST 4:48 PM EST
Civil Twilight 6:42 AM EST 5:18 PM EST
Nautical Twilight 6:09 AM EST 5:52 PM EST
Astronomical Twilight 5:36 AM EST 6:25 PM EST
Moon 1:12 AM EST (11/27) 1:25 PM EST (11/27)
Length of Visible Light 10h 36m
Length of Day
9h 36m
Waning Crescent, 32% of the Moon is Illuminated
Nov 27
Waning Crescent
Dec 2
New
Dec 9
First Quarter
Dec 17
Full
Dec 25
Last Quarter

Hourly Weather History & Observations

Time (EST) Temp. Windchill Dew Point Humidity Pressure Visibility Wind Dir Wind Speed Gust Speed Precip Events Conditions
12:18 AM 33.1 °F 28.7 °F 32.0 °F 96% 29.62 in 2.0 mi NNW 4.6 mph - 0.02 in Rain Light Freezing Rain
12:26 AM 33.1 °F 28.7 °F 33.1 °F 100% 29.62 in 1.5 mi WNW 4.6 mph - 0.02 in Rain Light Freezing Rain
12:49 AM 33.8 °F 28.6 °F 33.8 °F 100% 29.62 in 2.0 mi WNW 5.8 mph - 0.04 in   Overcast
12:50 AM 33.1 °F 26.9 °F 33.1 °F 100% 29.67 in 2.5 mi WNW 6.9 mph - 0.04 in   Overcast
12:58 AM 33.1 °F 28.7 °F 33.1 °F 100% 29.62 in 5.0 mi WNW 4.6 mph - N/A   Overcast
1:13 AM 33.1 °F 28.7 °F 33.1 °F 100% 29.60 in 6.0 mi NNW 4.6 mph - N/A   Overcast
1:33 AM 33.1 °F - 32.0 °F 96% 29.60 in 1.8 mi Calm Calm - N/A   Overcast
1:53 AM 33.1 °F - 33.1 °F 100% 29.64 in 1.5 mi Calm Calm - N/A   Overcast
2:04 AM 33.1 °F 30.0 °F 32.0 °F 96% 29.60 in 2.5 mi SSE 3.5 mph - N/A   Overcast
2:11 AM 33.1 °F - 32.0 °F 96% 29.59 in 3.0 mi Calm Calm - N/A   Overcast
2:22 AM 33.1 °F 30.0 °F 33.1 °F 100% 29.58 in 2.5 mi North 3.5 mph - N/A   Overcast
2:53 AM 33.1 °F - 33.1 °F 100% 29.62 in 3.0 mi Calm Calm - N/A   Overcast
3:01 AM 33.1 °F - 33.1 °F 100% 29.58 in 5.0 mi Calm Calm - N/A   Overcast
3:53 AM 34.0 °F 27.2 °F 33.1 °F 96% 29.62 in 10.0 mi NW 8.1 mph - N/A   Overcast
4:31 AM 34.0 °F 23.8 °F 32.0 °F 92% 29.56 in 10.0 mi NW 16.1 mph 19.6 mph N/A   Overcast
4:53 AM 34.0 °F 26.0 °F 33.1 °F 96% 29.63 in 10.0 mi WNW 10.4 mph - N/A   Overcast
5:53 AM 34.0 °F 26.0 °F 32.0 °F 92% 29.65 in 2.0 mi NW 10.4 mph - 0.00 in Snow Light Snow
6:01 AM 34.0 °F 26.6 °F 32.0 °F 92% 29.61 in 1.5 mi NW 9.2 mph - 0.00 in Snow Light Snow
6:16 AM 33.1 °F 26.9 °F 32.0 °F 96% 29.60 in 2.5 mi Variable 6.9 mph - 0.00 in Snow Light Snow
6:23 AM 33.1 °F 25.5 °F 32.0 °F 96% 29.62 in 2.5 mi WNW 9.2 mph - 0.00 in Snow Light Snow
6:31 AM 33.1 °F 25.5 °F 32.0 °F 96% 29.60 in 3.0 mi NW 9.2 mph - 0.00 in Snow Light Snow
6:33 AM 33.1 °F 24.9 °F 32.0 °F 96% 29.60 in 3.0 mi NW 10.4 mph 19.6 mph 0.00 in Snow Light Snow
6:53 AM 34.0 °F 25.5 °F 30.0 °F 85% 29.65 in 8.0 mi NW 11.5 mph - 0.00 in Snow Light Snow
7:53 AM 33.1 °F 23.9 °F 28.9 °F 85% 29.68 in 6.0 mi NNW 12.7 mph - 0.00 in Snow Light Snow
8:53 AM 33.1 °F 23.4 °F 28.9 °F 85% 29.67 in 5.0 mi NNW 13.8 mph - 0.00 in   Overcast
9:53 AM 33.1 °F 23.0 °F 28.9 °F 85% 29.68 in 10.0 mi NW 15.0 mph - 0.00 in   Overcast
10:22 AM 33.1 °F 23.0 °F 30.0 °F 89% 29.63 in 1.8 mi NW 15.0 mph - 0.00 in Snow Light Snow
10:44 AM 33.1 °F 23.4 °F 28.9 °F 85% 29.63 in 3.0 mi NW 13.8 mph - 0.00 in Snow Light Snow
10:53 AM 33.1 °F 21.9 °F 28.9 °F 85% 29.68 in 7.0 mi NNW 18.4 mph 25.3 mph 0.00 in Snow Light Snow
11:53 AM 33.1 °F 21.5 °F 28.0 °F 82% 29.62 in 9.0 mi NW 19.6 mph 27.6 mph 0.00 in   Overcast
12:53 PM 32.0 °F 21.2 °F 28.0 °F 85% 29.65 in 7.0 mi NW 16.1 mph 26.5 mph 0.00 in   Overcast
1:53 PM 32.0 °F 21.2 °F 27.0 °F 82% 29.65 in 10.0 mi NNW 16.1 mph 24.2 mph 0.00 in   Overcast
2:44 PM 32.0 °F 21.6 °F 24.1 °F 73% 29.65 in 10.0 mi NW 15.0 mph 32.2 mph 0.00 in   Overcast
2:53 PM 32.0 °F 21.2 °F 24.1 °F 73% 29.70 in 10.0 mi NW 16.1 mph 24.2 mph 0.00 in   Overcast
3:32 PM 30.0 °F 17.5 °F 23.0 °F 75% 29.70 in 8.0 mi NW 19.6 mph 33.4 mph 0.00 in Snow Light Snow
3:53 PM 30.0 °F 18.7 °F 21.9 °F 72% 29.76 in 10.0 mi NNW 16.1 mph - 0.00 in   Overcast
4:53 PM 28.9 °F 15.4 °F 21.0 °F 72% 29.78 in 10.0 mi NW 21.9 mph 33.4 mph N/A   Overcast
5:08 PM 28.0 °F 13.6 °F 21.0 °F 75% 29.75 in 10.0 mi NW 24.2 mph 33.4 mph N/A   Overcast
5:53 PM 27.0 °F 12.8 °F 19.0 °F 72% 29.83 in 10.0 mi NW 21.9 mph 32.2 mph N/A   Overcast
6:53 PM 25.0 °F 12.6 °F 17.1 °F 72% 29.87 in 10.0 mi WNW 15.0 mph 26.5 mph N/A   Overcast
7:29 PM 24.1 °F 10.6 °F 15.1 °F 69% 29.83 in 10.0 mi WNW 17.3 mph 27.6 mph N/A   Scattered Clouds
7:53 PM 23.0 °F 8.7 °F 15.1 °F 72% 29.91 in 10.0 mi WNW 18.4 mph 24.2 mph N/A   Mostly Cloudy
8:13 PM 24.1 °F 9.8 °F 16.0 °F 71% 29.86 in 10.0 mi WNW 19.6 mph 28.8 mph N/A   Overcast
8:53 PM 24.1 °F 10.1 °F 16.0 °F 71% 29.92 in 9.0 mi WNW 18.4 mph - 0.00 in Snow Light Snow
9:53 PM 23.0 °F 10.1 °F 16.0 °F 74% 29.94 in 7.0 mi WNW 15.0 mph 29.9 mph 0.00 in Snow Light Snow
10:53 PM 23.0 °F 8.0 °F 16.0 °F 74% 29.99 in 9.0 mi WNW 20.7 mph 27.6 mph 0.00 in   Overcast
11:38 PM 23.0 °F 11.1 °F 16.0 °F 74% 29.95 in 7.0 mi WNW 12.7 mph 23.0 mph 0.00 in Snow Light Snow
11:53 PM 23.0 °F 9.6 °F 16.0 °F 74% 30.02 in 8.0 mi WNW 16.1 mph 24.2 mph 0.00 in Snow Light Snow